Location: Ernez
(36.4595°N, 29.8755°E)
Time: 07:53:32
(UTC+00:00)

Cosmos 371 Rocket - Pass Details

Date: 13 November 2025
Orbit: 674 x 690 km, 74.0° (Epoch: 05 December)

Event Time Altitude Azimuth Distance (km) Brightness Sun altitude
Rises 17:14:08 0° 201° (SSW) 3,020 6.9 -28.4°
Reaches altitude 10° 17:16:26 10° 203° (SSW) 2,111 6.0 -28.8°
Enters shadow 17:19:10 35° 210° (SSW) 1,103 4.5 -29.4°
